Theta_e
321 320 319 318 317 318 316 316 315 316 316 316 316 315 316 316 317 315 314 315 316 316 317 318 320 320 321 321 321 322 321 320 319 318 319 318 318 318 318 317 318 318
319 318 318 316 316 316 315 316 316 316 315 315 315 314 314 316 315 315 315 316 316 315 316 317 318 318 319 320 321 321 320 320 319 319 318 318 317 318 318 317 318 316
317 317 316 315 315 314 314 314 315 315 315 314 314 316 316 315 314 312 313 315 315 314 315 315 316 317 318 319 319 320 318 317 316 317 318 318 315 318 318 317 316 317
317 317 316 315 315 314 313 314 313 314 314 314 315 316 316 315 314 314 316 319 314 313 312 313 314 315 316 315 316 315 314 314 313 314 314 312 314 316 314 315 315 315
315 314 314 314 314 314 314 314 314 314 314 314 313 314 316 314 313 312 312 312 312 311 311 311 311 312 312 312 312 311 311 310 310 310 310 309 310 311 310 313 312 313
314 315 314 314 314 314 314 314 314 314 313 313 314 314 313 313 312 311 312 312 311 310 310 309 310 310 310 310 310 310 310 310 309 309 309 309 309 309 310 309 310 311
314 314 314 314 314 314 314 313 313 314 313 314 313 312 312 312 311 310 310 311 310 311 310 309 309 308 309 309 309 308 308 309 308 309 308 308 310 309 309 308 309 308
314 314 314 313 313 313 312 312 312 312 312 312 312 310 311 310 309 309 308 309 309 308 308 307 307 307 307 309 309 309 309 309 308 308 308 307 308 309 308 308 308 308
315 315 314 312 312 312 311 312 311 311 312 311 310 309 309 309 308 307 307 308 307 307 306 306 306 306 307 308 308 309 309 308 308 308 308 308 309 308 307 307 307 307
315 314 313 313 312 312 311 311 311 311 311 310 309 309 309 308 307 307 306 307 307 306 305 305 305 306 306 306 307 308 309 308 307 307 307 307 308 307 306 307 307 307
314 314 313 313 312 312 311 311 311 311 311 309 309 308 307 307 307 306 306 306 307 306 305 305 305 306 306 306 306 306 307 308 307 307 307 306 306 306 310 307 308 308
313 313 314 313 313 312 312 312 311 311 310 310 309 308 306 306 306 307 307 305 305 305 305 305 305 305 305 305 306 306 306 306 307 308 307 307 306 306 307 306 308 307
312 314 314 313 313 312 312 312 311 310 310 309 309 308 307 306 305 305 307 305 304 304 305 305 305 305 305 305 305 306 306 307 307 306 306 307 307 307 307 306 307 307
314 314 314 314 314 314 313 312 311 310 309 309 308 307 307 307 306 306 306 305 304 305 305 306 305 305 304 305 305 306 306 306 306 307 306 306 306 306 307 307 306 307
314 314 314 314 314 314 313 312 312 311 311 310 309 309 309 308 307 306 306 306 305 304 304 305 306 305 305 305 306 306 305 306 306 307 307 307 306 306 306 306 306 306
314 313 314 313 313 313 313 313 312 312 312 311 310 309 308 308 307 307 307 307 306 305 304 305 305 305 309 305 305 307 305 306 306 306 306 307 308 307 306 307 307 307
314 313 313 313 313 313 313 312 312 311 311 310 310 309 307 308 307 307 306 306 307 306 305 305 306 307 303 299 299 302 305 306 307 306 306 307 307 307 308 308 307 308
310 311 312 312 312 312 312 311 311 311 310 310 310 310 310 308 307 306 305 305 305 304 303 304 305 303 298 298 297 297 301 306 305 306 307 307 307 307 307 307 308 308
301 300 301 302 303 305 305 304 303 303 304 305 306 307 308 309 309 309 309 307 305 305 305 305 306 299 297 297 298 297 297 300 305 306 306 307 307 307 308 308 308 308
299 299 298 298 299 299 298 298 299 299 300 300 302 303 303 303 304 305 307 308 308 307 307 307 307 298 294 294 294 294 294 297 304 306 307 307 308 308 308 308 308 309
298 298 297 297 298 298 297 297 296 297 297 298 298 299 299 300 300 300 302 304 305 306 306 307 304 294 294 294 294 294 294 297 302 303 304 306 307 308 309 309 310 310
298 297 296 297 297 297 296 296 295 295 295 296 297 296 297 297 298 298 299 300 302 303 304 303 301 293 293 294 294 294 297 304 303 303 304 304 305 307 308 309 310 310
297 297 296 296 296 296 296 295 295 295 295 296 295 295 295 295 296 296 297 298 299 300 300 300 300 295 293 293 294 294 299 305 305 305 305 305 305 307 308 309 310 310
297 297 296 296 295 295 295 295 296 296 295 295 294 294 294 295 295 295 295 296 296 297 299 298 298 296 293 293 293 293 298 303 304 304 305 305 306 307 307 308 309 308
297 296 296 295 294 294 295 295 295 295 295 295 294 294 294 294 295 293 293 294 295 296 298 296 297 297 293 292 292 293 297 301 303 303 303 304 305 306 307 308 308 307
296 296 295 295 295 295 295 295 296 295 295 295 295 294 294 294 293 293 292 293 293 293 294 295 295 296 295 292 292 292 293 299 300 301 301 302 303 305 306 307 307 307
Wind_Speed
7 6 7 6 6 6 7 6 5 6 5 5 6 5 6 4 3 3 4 4 4 4 4 5 5 5 5 5 5 5 5 5 5 5 5 5 5 6 6 6 5 5
6 7 6 6 5 5 5 7 7 6 6 5 5 5 3 4 3 3 4 4 4 4 4 5 5 5 6 6 6 6 5 5 5 4 6 7 6 6 6 6 6 4
7 8 9 9 9 8 7 5 5 5 6 5 5 5 5 3 4 2 3 5 5 4 4 4 4 4 5 6 6 5 5 6 5 5 5 6 5 6 5 5 5 7
9 10 9 8 8 8 6 6 4 4 4 6 6 5 5 4 3 4 3 4 5 4 4 4 4 4 4 5 5 4 4 4 4 5 4 3 4 5 5 5 5 5
8 6 6 7 6 7 7 7 7 6 6 6 5 5 6 5 4 4 4 4 4 5 4 4 3 4 4 4 4 5 4 4 4 5 5 5 3 4 4 5 6 6
4 5 7 8 9 9 8 8 7 6 6 5 5 4 4 5 5 4 4 4 3 5 5 4 5 3 4 5 5 4 4 5 4 5 5 5 5 4 4 4 6 6
7 6 6 6 7 7 7 6 5 4 5 5 5 4 5 5 5 5 4 4 4 3 4 5 5 4 3 5 5 5 4 5 4 5 6 4 5 5 5 5 5 5
6 4 4 4 6 6 6 5 5 5 5 5 6 4 5 6 6 4 4 5 5 4 4 4 4 5 5 5 6 6 5 4 5 5 5 5 5 5 5 4 5 5
8 6 5 4 6 6 6 6 5 5 4 6 6 5 3 5 6 5 6 5 5 4 4 4 4 4 3 5 5 6 6 5 4 5 5 5 5 6 6 5 5 5
6 7 7 6 6 6 7 5 6 5 5 6 6 5 5 3 4 6 6 5 5 4 4 4 4 3 4 4 6 6 6 6 5 5 4 3 4 5 6 6 7 6
5 5 6 6 6 6 6 6 6 6 5 7 6 6 4 4 3 4 5 6 6 6 5 4 4 4 4 4 4 4 5 5 5 5 4 3 3 3 3 4 5 4
3 5 5 6 6 6 6 6 6 6 6 4 6 7 4 3 4 3 4 5 4 4 4 5 5 4 4 5 5 4 5 5 5 4 4 4 3 3 3 4 4 4
2 3 3 3 3 4 4 4 5 5 5 5 4 6 5 4 3 4 2 4 4 4 4 4 4 4 4 4 4 5 5 5 5 4 4 4 4 3 3 3 4 5
7 3 4 5 4 3 4 5 6 5 4 3 4 5 4 4 4 3 3 3 3 3 3 3 3 3 3 4 4 4 4 4 5 5 4 3 3 2 2 3 3 3
7 6 6 5 4 4 5 6 6 5 4 4 3 3 2 1 1 1 2 2 2 2 3 3 2 3 3 4 4 5 4 5 5 4 4 4 3 1 1 1 1 1
8 8 7 6 5 4 5 5 6 6 5 5 5 3 2 1 1 1 1 1 1 1 1 2 2 3 4 6 5 4 5 4 4 4 5 4 3 2 3 3 2 2
8 8 7 6 6 6 6 6 6 6 6 6 5 4 2 0 1 0 1 1 1 1 2 2 1 2 2 1 3 4 4 4 4 5 4 4 4 4 4 4 4 4
9 9 8 7 7 7 6 6 7 7 7 6 6 7 5 4 5 4 4 4 2 2 2 3 2 3 4 3 3 3 3 2 2 0 2 3 5 5 5 4 5 5
11 12 11 11 9 8 7 8 9 10 9 8 7 5 5 7 5 6 6 5 5 5 5 6 6 10 11 9 6 3 0 1 0 1 1 2 3 4 4 5 5 5
11 12 12 11 10 10 9 10 11 10 8 7 6 7 7 7 7 7 6 7 6 5 6 7 9 11 13 12 11 9 4 1 3 2 2 3 4 4 4 5 5 5
10 10 12 11 10 11 12 12 11 10 10 8 7 7 8 8 8 8 7 7 7 7 8 9 9 12 13 13 12 10 8 4 3 1 2 4 4 4 4 5 5 4
11 12 12 11 11 12 13 11 11 11 10 8 7 7 7 7 8 8 9 9 8 7 9 9 9 14 14 14 14 12 9 6 5 5 4 3 4 4 4 4 4 4
9 10 11 11 10 11 11 11 11 10 9 7 8 8 8 9 7 7 7 8 9 9 8 8 8 11 14 14 14 14 9 6 6 5 5 5 5 5 4 4 4 4
8 9 9 8 8 9 9 8 7 7 7 6 8 8 8 8 6 7 7 8 8 8 7 7 7 10 13 13 14 13 9 7 6 5 6 5 6 6 4 4 5 6
7 9 9 8 8 8 7 8 8 7 5 6 7 7 7 6 6 7 7 7 7 7 9 9 7 8 12 12 13 12 9 6 6 5 6 7 6 8 7 5 6 5
6 7 8 7 6 6 8 8 6 7 7 6 7 5 5 5 6 7 8 7 7 8 7 7 8 8 10 12 11 11 11 6 5 5 5 6 6 6 7 8 7 7
Wind_Direction
143 138 139 147 155 152 152 161 177 167 172 167 157 175 169 174 159 140 131 124 135 130 132 142 144 146 153 155 159 151 166 168 151 154 160 158 167 166 171 165 159 163
137 130 130 134 134 141 164 168 170 170 169 170 162 150 156 134 152 141 143 126 110 110 117 122 133 142 148 153 161 157 157 159 161 161 157 167 173 172 172 170 162 140
142 142 150 156 161 167 167 168 163 166 158 168 148 143 145 147 129 124 141 129 116 108 101 111 114 127 137 146 153 154 152 153 152 168 159 177 161 175 179 162 150 166
162 162 161 156 153 155 153 145 160 157 144 143 161 155 141 145 125 115 104 106 109 102 100 97 113 111 115 121 121 106 120 115 131 144 134 117 172 166 166 158 151 163
158 151 143 144 149 148 150 154 165 168 162 152 129 131 128 127 113 102 104 96 106 108 100 103 98 109 113 106 109 112 107 114 117 130 133 133 148 154 155 152 159 176
136 150 153 154 157 154 158 163 161 153 145 137 142 125 119 121 116 118 120 116 109 113 109 108 106 98 107 110 99 100 121 117 117 120 121 133 125 117 131 138 152 171
153 155 157 158 150 148 142 142 141 138 135 136 121 119 132 118 117 122 125 129 130 128 128 131 127 120 115 111 103 100 84 108 112 114 119 118 119 102 99 119 136 163
146 147 147 140 125 112 116 121 127 134 138 125 121 131 130 127 123 125 125 131 129 120 109 111 120 123 129 125 121 110 101 106 120 120 116 117 118 111 99 108 120 133
143 137 125 116 109 109 111 121 130 132 140 129 128 125 107 124 131 126 129 125 118 120 117 111 121 124 122 124 124 126 122 114 124 133 142 141 126 125 122 121 115 124
126 130 127 129 124 126 124 133 136 132 130 119 124 125 118 104 117 127 125 127 125 122 128 131 125 126 110 117 135 134 131 130 123 112 93 85 124 139 133 133 139 134
113 116 122 131 130 129 134 142 140 132 125 128 125 114 117 115 102 120 122 131 140 149 148 148 158 149 132 121 115 116 124 129 126 115 109 106 114 130 124 121 125 130
72 113 136 140 136 136 146 145 134 124 121 121 126 122 113 115 137 126 137 131 129 143 145 153 162 160 156 154 137 120 110 114 118 124 131 129 130 137 127 138 137 137
33 44 54 67 92 120 117 109 106 104 108 119 117 124 134 141 140 129 111 124 139 137 137 157 162 155 146 136 133 134 137 132 128 123 136 144 173 162 148 147 144 147
138 103 69 63 57 69 88 90 84 75 71 92 108 116 135 159 165 163 141 130 145 134 141 144 136 132 133 133 135 145 150 149 148 150 143 146 153 176 152 174 175 171
116 98 75 62 61 72 76 75 75 77 74 64 66 74 71 109 106 116 140 148 133 134 137 135 141 160 167 165 157 160 159 160 162 156 159 162 160 209 267 131 172 320
93 91 84 75 57 49 53 61 62 64 64 57 50 67 83 84 84 97 126 207 237 216 151 159 177 180 174 172 168 164 168 161 152 162 165 168 178 189 215 199 173 172
87 94 96 90 79 57 46 52 59 61 60 56 48 46 43 81 99 82 4 355 342 322 288 281 302 353 12 148 163 144 151 168 178 175 164 164 176 192 228 218 196 179
49 57 58 49 60 62 59 57 56 52 49 45 43 39 28 53 51 42 28 15 25 36 29 7 13 41 65 60 49 33 33 61 43 75 203 186 187 195 211 212 224 216
52 57 53 45 36 37 43 51 50 46 36 30 32 19 34 54 52 60 50 38 57 67 42 21 25 15 17 21 28 29 77 122 119 105 132 254 252 242 227 221 219 227
48 54 54 50 45 40 41 45 47 43 34 22 18 30 41 39 38 50 48 45 37 43 52 46 41 17 30 31 36 41 40 303 297 268 232 215 215 217 230 239 232 226
44 53 56 50 48 49 45 41 38 36 31 20 20 28 36 36 29 37 38 45 41 44 61 52 33 24 35 35 34 30 26 58 84 87 310 310 308 283 258 249 250 247
51 54 56 50 47 47 47 40 42 36 27 9 19 26 29 35 32 34 34 36 38 49 65 54 35 32 38 38 33 25 28 38 27 24 2 328 300 283 282 280 275 257
58 58 56 44 45 53 51 42 38 32 29 17 29 27 28 30 31 34 30 36 37 39 53 55 41 29 36 37 33 26 30 28 23 16 9 343 311 304 287 268 254 241
63 68 67 62 50 50 53 54 46 43 37 27 42 27 30 21 17 33 36 37 39 39 36 48 35 26 33 34 33 28 32 29 13 11 352 344 325 319 308 291 264 253
61 65 67 63 63 56 49 45 45 36 17 30 44 42 31 20 22 29 29 31 31 32 33 38 26 19 26 32 35 29 27 22 17 20 0 345 340 325 321 311 304 295
50 64 68 68 70 71 63 57 36 34 22 23 34 37 39 28 24 29 28 18 11 24 27 25 20 10 12 21 35 31 24 20 16 23 6 336 329 319 317 316 311 304